Time,TemperatureF,DewpointF,PressureIn,WindDirection,WindDirectionDegrees,WindSpeedMPH,WindSpeedGustMPH,Humidity,HourlyPrecipIn,Conditions,Clouds,dailyrainin,SoftwareType,DateUTC
2013-03-02 00:05:00,51.8,35.6,29.62,North,0,0.0,0.0,54,0.00,,,0.00,WUHU216HW,2013-03-02 05:05:00,
2013-03-02 00:35:00,51.3,35.2,29.62,North,0,0.0,0.0,54,0.00,,,0.00,WUHU216HW,2013-03-02 05:35:00,
2013-03-02 01:05:00,50.8,35.1,29.62,North,0,0.0,0.0,55,0.00,,,0.00,WUHU216HW,2013-03-02 06:05:00,
2013-03-02 01:35:00,50.2,34.7,29.62,North,0,0.0,0.0,55,0.00,,,0.00,WUHU216HW,2013-03-02 06:35:00,
2013-03-02 02:05:00,49.9,34.7,29.62,North,0,0.0,0.0,56,0.00,,,0.00,WUHU216HW,2013-03-02 07:05:00,
2013-03-02 02:35:00,49.3,34.2,29.62,North,0,0.0,0.0,56,0.00,,,0.00,WUHU216HW,2013-03-02 07:35:00,
2013-03-02 03:05:00,48.6,33.6,29.62,North,0,0.0,0.0,56,0.00,,,0.00,WUHU216HW,2013-03-02 08:05:00,
2013-03-02 03:35:00,48.1,33.0,29.62,North,0,0.0,0.0,56,0.00,,,0.00,WUHU216HW,2013-03-02 08:35:00,
2013-03-02 04:05:00,47.7,32.2,29.62,North,0,0.0,0.0,55,0.00,,,0.00,WUHU216HW,2013-03-02 09:05:00,
2013-03-02 04:35:00,47.5,32.6,29.62,North,0,0.0,0.0,56,0.00,,,0.00,WUHU216HW,2013-03-02 09:35:00,
2013-03-02 05:05:00,47.5,32.6,29.63,North,0,0.0,0.0,56,0.00,,,0.00,WUHU216HW,2013-03-02 10:05:00,
2013-03-02 05:35:00,47.2,32.7,29.64,North,0,0.0,0.0,57,0.00,,,0.00,WUHU216HW,2013-03-02 10:35:00,
2013-03-02 06:05:00,46.8,32.3,29.62,North,0,0.0,0.0,57,0.00,,,0.00,WUHU216HW,2013-03-02 11:05:00,
2013-03-02 06:35:00,44.8,29.2,29.62,North,0,0.0,0.0,54,0.00,,,0.00,WUHU216HW,2013-03-02 11:35:00,
2013-03-02 07:05:00,42.8,23.9,29.64,NNW,338,0.0,0.0,47,0.00,,,0.00,WUHU216HW,2013-03-02 12:05:00,
2013-03-02 07:35:00,42.3,17.7,29.63,South,180,0.0,0.0,37,0.00,,,0.00,WUHU216HW,2013-03-02 12:35:00,
2013-03-02 08:05:00,46.4,24.5,29.63,NNW,338,0.0,0.0,42,0.00,,,0.00,WUHU216HW,2013-03-02 13:05:00,
2013-03-02 08:35:00,48.2,29.3,29.65,NNW,338,0.0,0.0,48,0.00,,,0.00,WUHU216HW,2013-03-02 13:35:00,
2013-03-02 09:05:00,49.7,32.3,29.65,NNW,338,0.0,0.0,51,0.00,,,0.00,WUHU216HW,2013-03-02 14:05:00,
2013-03-02 09:35:00,51.5,34.4,29.65,WNW,293,0.0,0.0,52,0.00,,,0.00,WUHU216HW,2013-03-02 14:35:00,
2013-03-02 10:05:00,52.9,34.8,29.65,WNW,293,0.0,0.0,50,0.00,,,0.00,WUHU216HW,2013-03-02 15:05:00,
2013-03-02 10:35:00,53.6,34.9,29.64,SW,225,0.0,0.0,49,0.00,,,0.00,WUHU216HW,2013-03-02 15:35:00,
2013-03-02 11:05:00,55.3,36.9,29.64,NW,315,0.0,0.0,50,0.00,,,0.00,WUHU216HW,2013-03-02 16:05:00,
2013-03-02 11:35:00,58.5,38.3,29.64,WNW,293,0.0,0.0,47,0.00,,,0.00,WUHU216HW,2013-03-02 16:35:00,
2013-03-02 12:05:00,60.3,37.6,29.63,West,270,0.0,0.0,43,0.00,,,0.00,WUHU216HW,2013-03-02 17:05:00,
2013-03-02 12:35:00,59.2,35.5,29.62,NNW,338,0.0,0.0,41,0.00,,,0.00,WUHU216HW,2013-03-02 17:35:00,
2013-03-02 13:05:00,58.7,36.2,29.61,WSW,248,0.0,0.0,43,0.00,,,0.00,WUHU216HW,2013-03-02 18:05:00,
2013-03-02 13:35:00,59.2,30.7,29.60,West,270,0.0,0.0,34,0.00,,,0.00,WUHU216HW,2013-03-02 18:35:00,
2013-03-02 14:05:00,62.1,31.8,29.58,West,270,0.0,0.0,32,0.00,,,0.00,WUHU216HW,2013-03-02 19:05:00,
2013-03-02 14:35:00,61.7,30.7,29.58,West,270,0.0,0.0,31,0.00,,,0.00,WUHU216HW,2013-03-02 19:35:00,
2013-03-02 15:05:00,60.8,29.9,29.57,North,0,0.0,0.0,31,0.00,,,0.00,WUHU216HW,2013-03-02 20:05:00,
2013-03-02 15:35:00,60.5,30.3,29.56,NNW,338,0.0,0.0,32,0.00,,,0.00,WUHU216HW,2013-03-02 20:35:00,
2013-03-02 16:05:00,61.0,30.8,29.56,NE,45,0.0,0.0,32,0.00,,,0.00,WUHU216HW,2013-03-02 21:05:00,
2013-03-02 16:35:00,59.2,30.0,29.56,SW,225,0.0,0.0,33,0.00,,,0.00,WUHU216HW,2013-03-02 21:35:00,
2013-03-02 17:05:00,57.2,31.1,29.57,West,270,0.0,0.0,37,0.00,,,0.00,WUHU216HW,2013-03-02 22:05:00,
2013-03-02 17:35:00,54.9,32.1,29.59,West,270,0.0,0.0,42,0.00,,,0.00,WUHU216HW,2013-03-02 22:35:00,
2013-03-02 18:05:00,52.6,31.7,29.59,SW,225,0.0,0.0,45,0.00,,,0.00,WUHU216HW,2013-03-02 23:05:00,
2013-03-02 18:35:00,51.1,31.5,29.60,NNW,338,0.0,0.0,47,0.00,,,0.00,WUHU216HW,2013-03-02 23:35:00,
2013-03-02 19:05:00,50.0,32.2,29.61,West,270,0.0,0.0,50,0.00,,,0.00,WUHU216HW,2013-03-03 00:05:00,
2013-03-02 19:35:00,49.1,32.2,29.62,WSW,248,0.0,0.0,52,0.00,,,0.00,WUHU216HW,2013-03-03 00:35:00,
2013-03-02 20:05:00,48.1,32.1,29.62,West,270,0.0,0.0,54,0.00,,,0.00,WUHU216HW,2013-03-03 01:05:00,
2013-03-02 20:35:00,46.6,31.7,29.62,NW,315,0.0,0.0,56,0.00,,,0.00,WUHU216HW,2013-03-03 01:35:00,
2013-03-02 21:05:00,45.0,30.7,29.63,NW,315,0.0,0.0,57,0.00,,,0.00,WUHU216HW,2013-03-03 02:05:00,
2013-03-02 21:35:00,43.6,28.5,29.63,NW,315,0.0,0.0,55,0.00,,,0.00,WUHU216HW,2013-03-03 02:35:00,
2013-03-02 22:05:00,42.8,26.0,29.63,NW,315,0.0,0.0,51,0.00,,,0.00,WUHU216HW,2013-03-03 03:05:00,
2013-03-02 22:35:00,41.9,23.6,29.62,NW,315,0.0,0.0,48,0.00,,,0.00,WUHU216HW,2013-03-03 03:35:00,
2013-03-02 23:05:00,40.9,20.0,29.62,NW,315,0.0,0.0,43,0.00,,,0.00,WUHU216HW,2013-03-03 04:05:00,
2013-03-02 23:35:00,42.3,22.9,29.63,North,0,0.0,0.0,46,0.00,,,0.00,WUHU216HW,2013-03-03 04:35:00,